Location: Potomac
(46.8816°N, 113.5795°W)
Time: 03:44:49
(UTC+00:00)

Oscar 19 - Pass Details

Date: 28 June 2022
Orbit: 773 x 790 km, 98.8° (Epoch: 14 August)

Event Time Altitude Azimuth Distance (km) Brightness Sun altitude
Rises 10:23:24 0° 23° (NNE) 3,264 15.6 -10.5°
Reaches altitude 10° 10:25:58 10° 33° (NNE) 2,330 14.7 -10.2°
Maximum altitude 10:30:32 31° 96° (E) 1,322 12.2 -9.7°
Drops below altitude 10° 10:35:03 10° 158° (SSE) 2,313 12.8 -9.2°
Sets 10:37:35 0° 169° (SSE) 3,236 13.5 -9.0°
